Location: Eaton Estates
(41.3089°N, 82.0057°W)
Time: 02:10:57
(UTC+00:00)

Cosmos 1455 Rocket - Pass Details

Date: 17 June 2021
Orbit: 605 x 629 km, 82.5° (Epoch: 02 August)

Event Time Altitude Azimuth Distance (km) Brightness Sun altitude
Rises 02:56:27 0° 351° (N) 2,923 7.7 -16.3°
Reaches altitude 10° 02:58:41 10° 351° (N) 2,013 6.7 -16.5°
Maximum altitude 03:03:09 85° 265° (W) 638 3.1 -17.0°
Enters shadow 03:05:25 29° 177° (S) 1,156 4.0 -17.3°
